FW7233 Weather Reports


Display with metric or nautical units.
time (UTC)temp
F
wind
direction
speed
MPH
gust
MPH
rain 1hr
in
rain 24hr
in
rain mn
in
humidity
%
barometer
mb
20260506214610 57 137 0.0 2.0 0.05 0.09 0.10 99 1007.9
20260506213609 57 195 1.0 2.0 0.08 0.09 0.10 98 1007.3
20260506212607 57 116 0.0 3.0 0.09 0.09 0.09 98 1007.6
20260506210607 58 30 0.0 1.0 0.09 0.09 0.09 96 1006.8
20260506205608 58 52 0.0 7.0 0.08 0.00 0.08 94 1007.2
20260506204607 59 220 2.0 6.0 0.05 0.00 0.04 91 1007.5
20260506203608 60 249 2.0 2.0 0.02 0.00 0.01 85 1006.7
20260506201609 61 142 0.0 0.0 0.00 0.00 0.00 78 1006.1
20260506200608 61 142 0.0 0.0 0.00 0.00 0.00 76 1006.3
20260506195609 61 143 0.0 0.0 0.00 0.00 0.00 75 1006.4
20260506194610 62 128 0.0 1.0 0.00 0.00 0.00 73 1006.2
20260506193608 63 135 0.0 4.0 0.00 0.00 0.00 72 1006.4
20260506191609 61 138 0.0 0.0 0.00 0.00 0.00 78 1006.6
20260506190608 61 144 0.0 0.0 0.00 0.00 0.00 77 1006.4
20260506185610 62 140 0.0 0.0 0.00 0.00 0.00 78 1006.0
20260506184608 62 133 0.0 0.0 0.00 0.00 0.00 75 1005.9
20260506182608 63 138 0.0 0.0 0.00 0.00 0.00 72 1006.1
20260506181608 64 146 0.0 1.0 0.00 0.00 0.00 70 1005.8
20260506180608 65 131 0.0 2.0 0.00 0.00 0.00 66 1005.8
20260506175609 66 153 0.0 1.0 0.00 0.00 0.00 64 1005.8
20260506174608 68 135 0.0 1.0 0.00 0.00 0.00 60 1005.6
20260506172608 69 142 0.0 2.0 0.00 0.00 0.00 57 1005.8
20260506170621 71 130 0.0 3.0 0.00 0.00 0.00 53 1005.7
20260506165607 72 209 4.0 4.0 0.00 0.00 0.00 50 1005.7
20260506164608 73 65 1.0 7.0 0.00 0.00 0.00 51 1005.9
20260506162608 74 275 1.0 4.0 0.00 0.00 0.00 50 1005.9
20260506161608 74 263 2.0 7.0 0.00 0.00 0.00 50 1006.0
20260506160608 74 130 2.0 6.0 0.00 0.00 0.00 49 1005.9
20260506155608 73 132 1.0 6.0 0.00 0.00 0.00 51 1006.1
20260506154608 74 135 3.0 7.0 0.00 0.00 0.00 48 1005.9
20260506153608 74 257 3.0 9.0 0.00 0.00 0.00 48 1006.0
20260506152607 74 214 5.0 7.0 0.00 0.00 0.00 49 1005.8
20260506151608 74 164 1.0 8.0 0.00 0.00 0.00 50 1006.0
20260506150607 74 134 4.0 9.0 0.00 0.00 0.00 48 1006.1
20260506145608 73 154 5.0 10.0 0.00 0.00 0.00 50 1005.9
20260506144610 73 253 4.0 8.0 0.00 0.00 0.00 51 1005.9
20260506143608 75 61 1.0 4.0 0.00 0.00 0.00 54 1006.0
20260506141608 74 200 4.0 8.0 0.00 0.00 0.00 55 1006.1
20260506134607 74 66 0.0 7.0 0.00 0.00 0.00 58 1006.0
20260506132607 72 121 2.0 6.0 0.00 0.00 0.00 57 1006.3
20260506131608 72 271 2.0 9.0 0.00 0.00 0.00 59 1006.0
20260506130609 72 140 0.0 8.0 0.00 0.00 0.00 59 1006.0
20260506125608 73 122 1.0 10.0 0.00 0.00 0.00 58 1006.3
20260506124608 74 136 9.0 13.0 0.00 0.00 0.00 56 1006.0
20260506123607 74 177 2.0 11.0 0.00 0.00 0.00 56 1006.0
20260506122608 73 248 4.0 8.0 0.00 0.00 0.00 58 1006.2
20260506121608 71 148 3.0 8.0 0.00 0.00 0.00 60 1006.2
20260506120614 73 270 6.0 7.0 0.00 0.00 0.00 59 1006.0
20260506115608 72 242 5.0 8.0 0.00 0.00 0.00 60 1006.1
20260506113607 72 139 3.0 7.0 0.00 0.00 0.00 62 1006.3
20260506112607 70 188 2.0 6.0 0.00 0.00 0.00 64 1006.4
20260506111607 71 221 1.0 7.0 0.00 0.00 0.00 64 1006.4
20260506110615 69 137 1.0 10.0 0.00 0.00 0.00 66 1006.1
20260506105610 70 149 4.0 7.0 0.00 0.00 0.00 64 1006.1
20260506104608 70 185 1.0 7.0 0.00 0.00 0.00 62 1006.2
20260506103607 71 169 1.0 9.0 0.00 0.00 0.00 61 1005.7
20260506102608 69 206 2.0 9.0 0.00 0.00 0.00 65 1005.9
20260506101608 69 138 0.0 9.0 0.00 0.00 0.00 65 1006.0
20260506100609 71 232 4.0 8.0 0.00 0.00 0.00 64 1006.0
20260506094611 70 234 4.0 10.0 0.00 0.00 0.00 63 1005.8
20260506093608 70 279 4.0 10.0 0.00 0.00 0.00 63 1005.5
20260506092608 71 105 1.0 9.0 0.00 0.00 0.00 63 1005.8
20260506091608 71 163 4.0 7.0 0.00 0.00 0.00 62 1005.4
20260506090607 72 201 2.0 14.0 0.00 0.00 0.00 62 1005.3
20260506085608 70 283 3.0 11.0 0.00 0.00 0.00 61 1005.5
20260506083608 70 38 2.0 8.0 0.00 0.00 0.00 64 1005.4
20260506082607 68 101 3.0 9.0 0.00 0.00 0.00 65 1005.6
20260506081608 68 141 2.0 15.0 0.00 0.00 0.00 68 1005.5
20260506080607 68 176 2.0 8.0 0.00 0.00 0.00 66 1005.4
20260506071607 66 221 2.0 9.0 0.00 0.00 0.00 69 1005.2
20260506070608 65 167 3.0 9.0 0.00 0.00 0.00 70 1005.0
20260506044608 53 159 5.0 6.0 0.00 0.00 0.00 99 1005.3
20260506043608 52 133 0.0 2.0 0.00 0.00 0.00 99 1005.5
20260506042608 51 141 0.0 0.0 0.00 0.00 0.00 99 1005.2
20260506041608 51 138 0.0 1.0 0.00 0.00 0.00 99 1005.3
20260506040608 50 136 0.0 1.0 0.00 0.00 0.00 99 1005.2
20260506034608 48 140 0.0 0.0 0.00 0.00 0.00 99 1005.5
20260506033607 48 131 0.0 0.0 0.00 0.00 0.00 99 1005.7
20260506032608 47 137 0.0 0.0 0.00 0.00 0.00 99 1005.8
20260506031608 48 141 0.0 0.0 0.00 0.00 0.00 99 1005.6
20260506030607 47 140 0.0 0.0 0.00 0.00 0.00 99 1005.8
20260506025608 48 140 0.0 0.0 0.00 0.00 0.00 99 1005.8
20260506024607 47 137 0.0 0.0 0.00 0.00 0.00 99 1005.8
20260506023608 48 133 0.0 0.0 0.00 0.00 0.00 99 1005.7
20260506022607 48 137 0.0 0.0 0.00 0.00 0.00 99 1005.8
20260506021607 48 140 0.0 0.0 0.00 0.00 0.00 99 1006.2
20260506020609 49 135 0.0 0.0 0.00 0.00 0.00 99 1006.2
20260506014608 49 141 0.0 1.0 0.00 0.00 0.00 99 1006.2
20260506013615 49 146 0.0 0.0 0.00 0.00 0.00 99 1006.2
20260506012608 49 141 0.0 0.0 0.00 0.00 0.00 99 1006.0
20260506011607 49 136 0.0 1.0 0.00 0.00 0.00 99 1006.3
20260506010607 49 157 1.0 1.0 0.00 0.00 0.00 99 1006.1
20260506005607 49 113 0.0 1.0 0.00 0.00 0.00 99 1006.0
20260506004608 49 139 0.0 0.0 0.00 0.00 0.00 99 1006.1
20260506002607 50 143 0.0 0.0 0.00 0.00 0.00 98 1006.4
20260506001608 50 137 0.0 0.0 0.00 0.00 0.00 98 1006.2
20260506000608 51 146 0.0 0.0 0.00 0.00 0.00 98 1006.5
20260505234607 51 149 0.0 0.0 0.00 0.00 0.00 97 1006.5
20260505232609 51 138 0.0 1.0 0.00 0.00 0.00 96 1006.5
20260505231608 52 138 0.0 0.0 0.00 0.00 0.00 96 1006.7
20260505230607 53 138 0.0 0.0 0.00 0.00 0.00 96 1006.7
20260505225608 53 147 0.0 0.0 0.00 0.00 0.00 95 1006.8
20260505224608 54 150 0.0 1.0 0.00 0.00 0.00 95 1006.8
20260505223608 54 138 0.0 0.0 0.00 0.00 0.00 95 1006.6
20260505222607 54 151 0.0 0.0 0.00 0.00 0.00 95 1006.8
20260505221608 55 132 0.0 1.0 0.00 0.00 0.00 94 1006.7
20260505220608 55 137 0.0 0.0 0.00 0.00 0.00 94 1006.8
20260505215608 56 137 0.0 1.0 0.00 0.00 0.00 93 1006.9